CW9792 Weather Reports


time (UTC)temp
C
wind
direction
speed
KPH
gust
KPH
rain 1hr
cm
rain 24hr
cm
rain mn
cm
humidity
%
barometer
mb
20260905154548 29 61 0.0 0.0 0.00 0.00 0.00 52 1013.6
20260905154047 28 78 0.0 0.0 0.00 0.00 0.00 55 1013.7
20260905153547 28 65 0.0 1.6 0.00 0.00 0.00 56 1013.8
20260905153046 28 117 0.0 1.6 0.00 0.00 0.00 55 1013.9
20260905152546 28 129 0.0 0.0 0.00 0.00 0.00 55 1013.7
20260905152046 28 142 0.0 0.0 0.00 0.00 0.00 56 1013.8
20260905151546 28 105 0.0 0.0 0.00 0.00 0.00 56 1013.7
20260905151045 27 111 0.0 0.0 0.00 0.00 0.00 58 1013.8
20260905150545 27 122 0.0 1.6 0.00 0.00 0.00 57 1013.7
20260905150045 27 86 0.0 1.6 0.00 0.00 0.00 58 1013.6
20260905145545 27 73 0.0 0.0 0.00 0.00 0.00 58 1013.8
20260905145045 27 111 0.0 0.0 0.00 0.00 0.00 58 1013.9
20260905144545 27 93 0.0 0.0 0.00 0.00 0.00 58 1013.7
20260905144044 27 103 0.0 0.0 0.00 0.00 0.00 57 1013.7
20260905143545 27 41 0.0 0.0 0.00 0.00 0.00 57 1013.8
20260905143044 27 109 0.0 1.6 0.00 0.00 0.00 57 1013.8
20260905142548 27 79 0.0 1.6 0.00 0.00 0.00 58 1013.7
20260905142044 27 54 0.0 1.6 0.00 0.00 0.00 58 1013.8
20260905141544 27 44 0.0 1.6 0.00 0.00 0.00 57 1013.9
20260905141045 27 111 0.0 0.0 0.00 0.00 0.00 57 1014.0
20260905140543 27 123 0.0 1.6 0.00 0.00 0.00 57 1013.7
20260905140044 28 94 0.0 1.6 0.00 0.00 0.00 56 1014.1
20260905135542 28 63 0.0 0.0 0.00 0.00 0.00 57 1014.0
20260905135040 28 69 0.0 0.0 0.00 0.00 0.00 56 1013.6
20260905134540 28 124 0.0 0.0 0.00 0.00 0.00 57 1013.4
20260905134039 28 91 0.0 0.0 0.00 0.00 0.00 56 1013.4
20260905133538 27 77 0.0 0.0 0.00 0.00 0.00 57 1013.5
20260905133039 27 74 0.0 0.0 0.00 0.00 0.00 58 1013.4
20260905132535 27 59 0.0 0.0 0.00 0.00 0.00 57 1013.4
20260905132034 27 57 0.0 1.6 0.00 0.00 0.00 57 1013.6
20260905131533 27 46 0.0 0.0 0.00 0.00 0.00 58 1013.5
20260905131032 26 44 0.0 0.0 0.00 0.00 0.00 58 1013.5
20260905130530 26 32 0.0 0.0 0.00 0.00 0.00 59 1013.6
20260905130030 26 36 0.0 0.0 0.00 0.00 0.00 59 1013.6
20260905125533 26 37 0.0 0.0 0.00 0.00 0.00 59 1013.6
20260905125030 26 37 0.0 0.0 0.00 0.00 0.00 59 1013.6
20260905124527 26 194 0.0 0.0 0.00 0.00 0.00 61 1013.6
20260905124025 25 194 0.0 0.0 0.00 0.00 0.00 62 1013.5
20260905123524 25 194 0.0 0.0 0.00 0.00 0.00 63 1013.5
20260905123023 25 194 0.0 0.0 0.00 0.00 0.00 63 1013.3
20260905122523 24 194 0.0 0.0 0.00 0.00 0.00 64 1013.3
20260905122022 24 194 0.0 0.0 0.00 0.00 0.00 65 1013.4
20260905121522 23 193 0.0 0.0 0.00 0.00 0.00 65 1013.4
20260905121023 23 192 0.0 0.0 0.00 0.00 0.00 65 1013.3
20260905120522 23 192 0.0 0.0 0.00 0.00 0.00 65 1013.3
20260905120021 23 192 0.0 0.0 0.00 0.00 0.00 64 1013.3
20260905115524 23 192 0.0 0.0 0.00 0.00 0.00 64 1013.1
20260905115023 23 193 0.0 0.0 0.00 0.00 0.00 64 1013.0
20260905114520 23 193 0.0 0.0 0.00 0.00 0.00 64 1013.0
20260905114019 23 193 0.0 0.0 0.00 0.00 0.00 63 1013.0
20260905113524 23 193 0.0 0.0 0.00 0.00 0.00 63 1012.9
20260905113018 23 193 0.0 0.0 0.00 0.00 0.00 63 1012.8
20260905112517 23 193 0.0 0.0 0.00 0.00 0.00 62 1012.7
20260905112018 23 193 0.0 0.0 0.00 0.00 0.00 62 1012.7
20260905111519 23 193 0.0 0.0 0.00 0.00 0.00 62 1012.7
20260905111017 24 193 0.0 0.0 0.00 0.00 0.00 62 1012.5
20260905110518 24 193 0.0 0.0 0.00 0.00 0.00 61 1012.4
20260905110017 24 193 0.0 0.0 0.00 0.00 0.00 61 1012.4
20260905105517 24 193 0.0 0.0 0.00 0.00 0.00 60 1012.3
20260905105017 24 193 0.0 0.0 0.00 0.00 0.00 60 1012.2
20260905104516 25 192 0.0 0.0 0.00 0.00 0.00 60 1012.3
20260905104019 25 193 0.0 0.0 0.00 0.00 0.00 60 1012.2
20260905103520 25 193 0.0 0.0 0.00 0.00 0.00 59 1012.3
20260905103017 25 192 0.0 0.0 0.00 0.00 0.00 59 1012.3
20260905102515 25 193 0.0 0.0 0.00 0.00 0.00 59 1012.3
20260905102015 25 192 0.0 0.0 0.00 0.00 0.00 59 1012.2
20260905101515 25 193 0.0 0.0 0.00 0.00 0.00 59 1012.2
20260905101014 25 193 0.0 0.0 0.00 0.00 0.00 59 1012.1
20260905100514 25 193 0.0 0.0 0.00 0.00 0.00 60 1012.1
20260905100026 25 193 0.0 0.0 0.00 0.00 0.00 60 1012.1
20260905095512 25 184 0.0 0.0 0.00 0.00 0.00 61 1012.1
20260905095012 24 184 0.0 0.0 0.00 0.00 0.00 62 1012.0
20260905094518 24 184 0.0 0.0 0.00 0.00 0.00 62 1012.0
20260905094014 24 184 0.0 0.0 0.00 0.00 0.00 63 1011.9
20260905093513 23 184 0.0 0.0 0.00 0.00 0.00 63 1011.9
20260905093011 23 184 0.0 0.0 0.00 0.00 0.00 63 1011.9
20260905092513 23 184 0.0 0.0 0.00 0.00 0.00 64 1011.9
20260905092014 23 184 0.0 0.0 0.00 0.00 0.00 64 1011.8
20260905091512 23 184 0.0 0.0 0.00 0.00 0.00 64 1011.8
20260905091013 23 184 0.0 0.0 0.00 0.00 0.00 64 1011.8
20260905090510 23 184 0.0 0.0 0.00 0.00 0.00 64 1011.7
20260905090011 23 184 0.0 0.0 0.00 0.00 0.00 64 1011.7
20260905085510 23 184 0.0 0.0 0.00 0.00 0.00 63 1011.6
20260905085009 23 184 0.0 0.0 0.00 0.00 0.00 63 1011.6
20260905084510 23 184 0.0 0.0 0.00 0.00 0.00 63 1011.8
20260905084010 23 184 0.0 0.0 0.00 0.00 0.00 63 1011.7
20260905083510 23 184 0.0 0.0 0.00 0.00 0.00 63 1011.7
20260905083010 23 184 0.0 0.0 0.00 0.00 0.00 63 1011.8
20260905082509 23 184 0.0 0.0 0.00 0.00 0.00 63 1011.9
20260905082009 23 184 0.0 0.0 0.00 0.00 0.00 63 1011.8
20260905081509 24 184 0.0 0.0 0.00 0.00 0.00 63 1011.7
20260905081012 24 189 0.0 0.0 0.00 0.00 0.00 63 1011.7
20260905080508 23 202 0.0 0.0 0.00 0.00 0.00 63 1011.6
20260905080008 23 201 0.0 0.0 0.00 0.00 0.00 64 1011.5
20260905075509 23 177 0.0 0.0 0.00 0.00 0.00 64 1011.7
20260905075007 23 177 0.0 0.0 0.00 0.00 0.00 64 1011.7
20260905074507 23 177 0.0 0.0 0.00 0.00 0.00 64 1011.8
20260905074007 23 177 0.0 0.0 0.00 0.00 0.00 64 1011.9
20260905073506 23 177 0.0 0.0 0.00 0.00 0.00 64 1011.8
20260905073009 23 177 0.0 0.0 0.00 0.00 0.00 64 1011.8
20260905072507 23 177 0.0 0.0 0.00 0.00 0.00 64 1011.8
20260905072005 23 177 0.0 0.0 0.00 0.00 0.00 64 1011.9
20260905071504 23 175 0.0 0.0 0.00 0.00 0.00 65 1011.9
20260905071003 23 170 0.0 0.0 0.00 0.00 0.00 64 1012.0
20260905070503 23 170 0.0 0.0 0.00 0.00 0.00 64 1012.0
20260905070003 23 170 0.0 0.0 0.00 0.00 0.00 64 1012.0
20260905065503 23 170 0.0 0.0 0.00 0.00 0.00 64 1012.1
20260905065002 24 170 0.0 0.0 0.00 0.00 0.00 64 1012.2
20260905064619 24 170 0.0 0.0 0.00 0.00 0.00 64 1012.3
20260905064059 24 170 0.0 0.0 0.00 0.00 0.00 64 1012.3
20260905063559 24 170 0.0 0.0 0.00 0.00 0.00 64 1012.3
20260905063059 24 170 0.0 0.0 0.00 0.00 0.00 64 1012.4
20260905062557 24 170 0.0 0.0 0.00 0.00 0.00 64 1012.5
20260905062057 24 170 0.0 0.0 0.00 0.00 0.00 64 1012.5
20260905061604 24 170 0.0 0.0 0.00 0.00 0.00 64 1012.6
20260905061056 24 170 0.0 0.0 0.00 0.00 0.00 64 1012.6
20260905060600 24 170 0.0 0.0 0.00 0.00 0.00 64 1012.6
20260905060059 24 170 0.0 0.0 0.00 0.00 0.00 64 1012.6
20260905055555 24 170 0.0 0.0 0.00 0.00 0.00 64 1012.7
20260905055057 24 170 0.0 0.0 0.00 0.00 0.00 64 1012.6
20260905054703 24 170 0.0 0.0 0.00 0.00 0.00 64 1012.7
20260905054055 24 170 0.0 0.0 0.00 0.00 0.00 64 1012.7
20260905053555 24 170 0.0 0.0 0.00 0.00 0.00 64 1012.7
20260905053054 24 170 0.0 0.0 0.00 0.00 0.00 64 1012.7
20260905052553 24 170 0.0 0.0 0.00 0.00 0.00 64 1012.7
20260905052053 24 170 0.0 0.0 0.00 0.00 0.00 63 1012.7
20260905051553 24 170 0.0 0.0 0.00 0.00 0.00 63 1012.8
20260905051052 24 170 0.0 0.0 0.00 0.00 0.00 63 1012.7
20260905050552 24 170 0.0 0.0 0.00 0.00 0.00 63 1012.7
20260905050051 24 170 0.0 0.0 0.00 0.00 0.00 63 1012.8
20260905045552 24 170 0.0 0.0 0.00 0.00 0.00 63 1012.8
20260905045051 24 170 0.0 0.0 0.00 0.00 0.00 63 1012.8
20260905044604 25 170 0.0 0.0 0.00 0.00 0.00 63 1012.8
20260905044053 25 170 0.0 0.0 0.00 0.00 0.00 63 1012.8
20260905043550 25 170 0.0 0.0 0.00 0.00 0.00 63 1012.7
20260905043054 25 170 0.0 0.0 0.00 0.00 0.00 63 1012.7
20260905042549 25 170 0.0 0.0 0.00 0.00 0.00 63 1012.8
20260905042049 25 170 0.0 0.0 0.00 0.00 0.00 63 1012.8
20260905041549 25 170 0.0 0.0 0.00 0.00 0.00 63 1012.7
20260905041048 25 170 0.0 0.0 0.00 0.00 0.00 63 1012.8
20260905040548 25 170 0.0 0.0 0.00 0.00 0.00 63 1012.9
20260905040054 25 170 0.0 0.0 0.00 0.00 0.00 63 1012.9
20260905035547 25 170 0.0 0.0 0.00 0.00 0.00 63 1012.8
20260905035046 25 170 0.0 0.0 0.00 0.00 0.00 63 1013.0
20260905034559 25 170 0.0 0.0 0.00 0.00 0.00 63 1013.1
20260905034047 25 170 0.0 0.0 0.00 0.00 0.00 63 1013.1
20260905033550 25 170 0.0 0.0 0.00 0.00 0.00 63 1013.1
20260905033046 25 170 0.0 0.0 0.00 0.00 0.00 63 1013.1
20260905032548 25 170 0.0 0.0 0.00 0.00 0.00 63 1013.1
20260905032045 25 170 0.0 0.0 0.00 0.00 0.00 63 1013.0
20260905031549 25 170 0.0 0.0 0.00 0.00 0.00 63 1013.0
20260905031044 25 171 0.0 0.0 0.00 0.00 0.00 63 1013.0
20260905030545 25 171 0.0 0.0 0.00 0.00 0.00 63 1013.0
20260905030046 25 171 0.0 0.0 0.00 0.00 0.00 63 1013.0
20260905025544 25 152 0.0 0.0 0.00 0.00 0.00 63 1013.0
20260905025044 25 152 0.0 0.0 0.00 0.00 0.00 63 1013.1
20260905024555 26 151 0.0 0.0 0.00 0.00 0.00 63 1013.0
20260905024044 26 151 0.0 0.0 0.00 0.00 0.00 63 1013.0
20260905023544 26 152 0.0 0.0 0.00 0.00 0.00 63 1012.9
20260905023044 26 152 0.0 0.0 0.00 0.00 0.00 62 1012.9
20260905022543 26 151 0.0 0.0 0.00 0.00 0.00 62 1012.9
20260905022043 26 151 0.0 0.0 0.00 0.00 0.00 62 1013.0
20260905021544 26 151 0.0 0.0 0.00 0.00 0.00 62 1012.9
20260905021043 26 151 0.0 0.0 0.00 0.00 0.00 61 1013.0
20260905020547 26 151 0.0 0.0 0.00 0.00 0.00 61 1012.9
20260905020052 27 151 0.0 0.0 0.00 0.00 0.00 61 1012.8
20260905015542 27 151 0.0 0.0 0.00 0.00 0.00 61 1012.8
20260905015043 27 151 0.0 0.0 0.00 0.00 0.00 61 1012.8
20260905014543 27 151 0.0 0.0 0.00 0.00 0.00 61 1012.7
20260905014044 27 151 0.0 0.0 0.00 0.00 0.00 61 1012.7
20260905013542 27 151 0.0 0.0 0.00 0.00 0.00 61 1012.6
20260905013042 27 151 0.0 0.0 0.00 0.00 0.00 61 1012.6
20260905012544 27 151 0.0 0.0 0.00 0.00 0.00 60 1012.5
20260905012042 27 151 0.0 0.0 0.00 0.00 0.00 60 1012.5
20260905011541 27 151 0.0 0.0 0.00 0.00 0.00 59 1012.4
20260905011045 27 151 0.0 0.0 0.00 0.00 0.00 59 1012.4
20260905010541 27 151 0.0 0.0 0.00 0.00 0.00 59 1012.4
20260905010043 27 151 0.0 0.0 0.00 0.00 0.00 60 1012.3
20260905005541 28 151 0.0 0.0 0.00 0.00 0.00 59 1012.3
20260905005042 28 151 0.0 0.0 0.00 0.00 0.00 59 1012.3
20260905004541 28 151 0.0 0.0 0.00 0.00 0.00 58 1012.2
20260905004040 28 151 0.0 0.0 0.00 0.00 0.00 56 1012.1
20260905003540 29 151 0.0 1.6 0.00 0.00 0.00 56 1012.1
20260905003041 30 151 0.0 1.6 0.00 0.00 0.00 55 1012.1
20260905002539 30 5 0.0 0.0 0.00 0.00 0.00 54 1012.1
20260905002039 30 5 0.0 0.0 0.00 0.00 0.00 53 1012.1
20260905001539 31 5 0.0 0.0 0.00 0.00 0.00 52 1012.2
20260905001041 31 5 0.0 0.0 0.00 0.00 0.00 51 1012.2
20260905000542 31 5 0.0 0.0 0.00 0.00 0.00 50 1012.2
20260905000039 31 5 0.0 0.0 0.00 0.00 0.00 50 1012.2
20260904235541 32 5 0.0 0.0 0.00 0.00 0.00 49 1012.2
20260904235038 32 5 0.0 0.0 0.00 0.00 0.00 46 1012.3
20260904234538 33 5 0.0 0.0 0.00 0.00 0.00 45 1012.3
20260904234038 33 5 0.0 0.0 0.00 0.00 0.00 44 1012.3
20260904233542 33 5 0.0 0.0 0.00 0.00 0.00 44 1012.3
20260904233038 33 5 0.0 0.0 0.00 0.00 0.00 43 1012.3
20260904232541 33 5 0.0 0.0 0.00 0.00 0.00 41 1012.2
20260904232037 33 5 0.0 0.0 0.00 0.00 0.00 41 1012.2
20260904231552 34 5 0.0 0.0 0.00 0.00 0.00 40 1012.1
20260904231037 35 5 0.0 0.0 0.00 0.00 0.00 37 1012.2
20260904230537 35 5 0.0 0.0 0.00 0.00 0.00 36 1012.2
20260904230037 35 5 0.0 0.0 0.00 0.00 0.00 36 1012.2
20260904225536 35 355 0.0 0.0 0.00 0.00 0.00 37 1012.3
20260904225039 35 355 0.0 0.0 0.00 0.00 0.00 38 1012.2
20260904224536 35 355 0.0 0.0 0.00 0.00 0.00 37 1012.2
20260904224037 35 355 0.0 0.0 0.00 0.00 0.00 37 1012.1
20260904223535 35 355 0.0 0.0 0.00 0.00 0.00 36 1012.2
20260904223038 35 336 0.0 0.0 0.00 0.00 0.00 37 1012.2
20260904222540 35 355 0.0 0.0 0.00 0.00 0.00 37 1012.2
20260904222035 35 9 0.0 0.0 0.00 0.00 0.00 36 1012.2
20260904221539 35 360 0.0 0.0 0.00 0.00 0.00 35 1012.2
20260904221035 35 5 0.0 0.0 0.00 0.00 0.00 35 1012.2
20260904220535 36 360 0.0 0.0 0.00 0.00 0.00 34 1012.2
20260904220036 36 5 0.0 0.0 0.00 0.00 0.00 33 1012.2
20260904215535 36 20 0.0 0.0 0.00 0.00 0.00 33 1012.1
20260904215034 36 341 0.0 0.0 0.00 0.00 0.00 33 1012.2
20260904214535 36 341 0.0 0.0 0.00 0.00 0.00 33 1012.1
20260904214034 36 319 0.0 0.0 0.00 0.00 0.00 34 1012.2
20260904213534 36 345 0.0 0.0 0.00 0.00 0.00 35 1012.2
20260904213033 36 298 0.0 0.0 0.00 0.00 0.00 33 1012.1
20260904212532 36 314 0.0 0.0 0.00 0.00 0.00 33 1012.2
20260904212031 36 360 0.0 0.0 0.00 0.00 0.00 32 1012.3
20260904211531 36 9 0.0 0.0 0.00 0.00 0.00 33 1012.4
20260904211035 36 298 0.0 0.0 0.00 0.00 0.00 33 1012.4
20260904210531 36 328 0.0 0.0 0.00 0.00 0.00 32 1012.4
20260904210034 35 294 0.0 0.0 0.00 0.00 0.00 33 1012.4
20260904205530 35 281 0.0 0.0 0.00 0.00 0.00 33 1012.4
20260904205029 36 289 0.0 0.0 0.00 0.00 0.00 36 1012.5
20260904204531 35 286 0.0 0.0 0.00 0.00 0.00 34 1012.6
20260904204028 36 342 0.0 0.0 0.00 0.00 0.00 35 1012.6
20260904203528 36 284 0.0 0.0 0.00 0.00 0.00 33 1012.7
20260904203030 36 298 0.0 0.0 0.00 0.00 0.00 33 1012.8
20260904202526 35 294 0.0 0.0 0.00 0.00 0.00 33 1012.9
20260904202027 36 345 0.0 0.0 0.00 0.00 0.00 33 1012.9
20260904201525 36 348 0.0 0.0 0.00 0.00 0.00 34 1013.0
20260904201025 36 301 0.0 0.0 0.00 0.00 0.00 36 1013.0
20260904200527 36 296 0.0 0.0 0.00 0.00 0.00 34 1013.0
20260904200035 36 329 0.0 0.0 0.00 0.00 0.00 34 1013.1
20260904195523 36 5 0.0 0.0 0.00 0.00 0.00 32 1013.2
20260904195024 37 9 0.0 0.0 0.00 0.00 0.00 33 1013.4
20260904194521 36 40 0.0 0.0 0.00 0.00 0.00 35 1013.4
20260904194020 35 9 0.0 0.0 0.00 0.00 0.00 36 1013.5
20260904193522 35 355 0.0 0.0 0.00 0.00 0.00 38 1013.7
20260904193020 35 9 0.0 0.0 0.00 0.00 0.00 36 1013.7
20260904192518 35 342 0.0 0.0 0.00 0.00 0.00 36 1013.8
20260904192018 35 355 0.0 0.0 0.00 0.00 0.00 36 1013.9
20260904191518 36 348 0.0 0.0 0.00 0.00 0.00 35 1014.0
20260904191018 36 355 0.0 0.0 0.00 0.00 0.00 36 1014.1
20260904190618 35 327 0.0 0.0 0.00 0.00 0.00 36 1014.1
20260904190017 35 327 0.0 0.0 0.00 0.00 0.00 38 1014.2
20260904185517 34 350 0.0 0.0 0.00 0.00 0.00 38 1014.3
20260904185017 34 342 0.0 0.0 0.00 0.00 0.00 36 1014.4
20260904184517 35 331 0.0 0.0 0.00 0.00 0.00 36 1014.3
20260904184017 35 355 0.0 0.0 0.00 0.00 0.00 37 1014.4
20260904183517 35 18 0.0 0.0 0.00 0.00 0.00 36 1014.4
20260904183017 35 343 0.0 0.0 0.00 0.00 0.00 38 1014.5
20260904182521 35 315 0.0 0.0 0.00 0.00 0.00 36 1014.5
20260904182016 35 345 0.0 0.0 0.00 0.00 0.00 36 1014.6
20260904181516 35 337 0.0 0.0 0.00 0.00 0.00 36 1014.5
20260904181016 35 280 0.0 1.6 0.00 0.00 0.00 35 1014.6
20260904180519 36 246 0.0 0.0 0.00 0.00 0.00 34 1014.6
20260904180015 35 10 0.0 3.2 0.00 0.00 0.00 34 1014.7
20260904175516 36 249 0.0 3.2 0.00 0.00 0.00 35 1014.7
20260904175013 35 281 0.0 0.0 0.00 0.00 0.00 36 1014.8
20260904174516 35 285 0.0 0.0 0.00 0.00 0.00 36 1014.9
20260904174013 35 308 0.0 0.0 0.00 0.00 0.00 35 1014.9
20260904173517 35 298 0.0 0.0 0.00 0.00 0.00 36 1015.0
20260904173015 35 313 0.0 0.0 0.00 0.00 0.00 35 1014.9
20260904172511 35 350 0.0 0.0 0.00 0.00 0.00 37 1014.8
20260904172011 35 306 0.0 0.0 0.00 0.00 0.00 36 1015.0
20260904171510 35 315 0.0 0.0 0.00 0.00 0.00 37 1015.0
20260904171010 35 327 0.0 0.0 0.00 0.00 0.00 36 1015.0
20260904170509 35 338 0.0 0.0 0.00 0.00 0.00 36 1015.1
20260904170009 34 326 0.0 0.0 0.00 0.00 0.00 37 1015.1
20260904165509 34 312 0.0 0.0 0.00 0.00 0.00 37 1015.1
20260904165009 34 355 0.0 0.0 0.00 0.00 0.00 37 1015.2
20260904164508 34 291 0.0 0.0 0.00 0.00 0.00 38 1015.3
20260904164009 34 284 0.0 0.0 0.00 0.00 0.00 38 1015.3
20260904163508 34 284 0.0 0.0 0.00 0.00 0.00 38 1015.3
20260904163015 34 348 0.0 0.0 0.00 0.00 0.00 38 1015.3
20260904162506 34 323 0.0 0.0 0.00 0.00 0.00 39 1015.2
20260904162006 34 348 0.0 0.0 0.00 0.00 0.00 40 1015.2
20260904161507 34 300 0.0 0.0 0.00 0.00 0.00 40 1015.2
20260904161005 34 306 0.0 0.0 0.00 0.00 0.00 40 1015.2
20260904160505 33 287 0.0 0.0 0.00 0.00 0.00 43 1015.2
20260904160008 33 285 0.0 0.0 0.00 0.00 0.00 41 1015.2
20260904155504 33 289 0.0 0.0 0.00 0.00 0.00 40 1015.3
20260904155004 33 300 0.0 0.0 0.00 0.00 0.00 40 1015.3